This demonstration page uses our WeatherBlox Daily Observations layout. Learn more.

Left ArrowRight Arrow

38.83388, -104.82136

Hourly Observations for March 29, 2021

Temp ( °F °C ) Dew Point ( °F °C ) Humidity (%) Winds ( mph kmh ) Pressure ( in mb ) Visibility ( mi km ) Precip ( " mm )
12:58 am 00:58 Clear 46 7.9 12 -11 25 25 WNW 7 11 29.57 1001 10 16 0.00 0.00
1:58 am 01:58 Clear 45 7.4 12 -11.2 26 26 Calm 29.55 1001 10 16 0.00 0.00
2:58 am 02:58 Clear 46 7.6 8 -13.6 21 21 SW 5 7 29.48 998 10 16 0.00 0.00
3:58 am 03:58 Clear 46 7.6 8 -13.1 22 22 WNW 5 7 29.44 997 10 16 0.00 0.00
4:58 am 04:58 Clear 45 7 8 -13.3 22 22 Calm 29.41 996 10 16 0.00 0.00
5:58 am 05:58 Clear 45 7.3 7 -14.1 20 20 WNW 6 9 29.38 995 10 16 0.00 0.00
6:58 am 06:58 Sunny 45 7 5 -15 19 19 NW 12 19 29.36 994 10 16 0.00 0.00
7:58 am 07:58 Sunny 50 9.8 3 -16.1 15 15 NW 3 6 29.35 994 10 16 0.00 0.00
8:58 am 08:58 Sunny 52 11 9 -12.9 17 17 NNE 8 13 29.32 993 10 16 0.00 0.00
9:58 am 09:58 Sunny 56 13.5 4 -15.3 12 12 SE 7 11 29.29 992 10 16 0.00 0.00
10:58 am 10:58 Sunny 64 17.7 2 -16.6 8 8 ENE 10 17 29.25 991 10 16 0.00 0.00
11:02 am 11:02 Sunny 64 18 0 -18 7 7 S 16 26 29.21 989 10 16 0.00 0.00
11:03 am 11:03 Sunny 64 18 0 -18 7 7 WSW 14 22 29.23 990 10 16 0.00 0.00
11:39 am 11:39 Sunny 64 18 5 -15 9 9 S 13 20 29.21 989 10 16 0.00 0.00
11:58 am 11:58 Sunny 64 17.7 7 -14.1 10 10 ENE 7 11 29.20 989 10 16 0.00 0.00
12:21 pm 12:21 Sunny 64 18 3 -16 8 8 SSE 23 37 29.16 987 10 16 0.00 0.00
12:28 pm 12:28 Sunny 63 17 1 -17 8 8 ESE 18 30 29.16 987 10 16 0.00 0.00
12:35 pm 12:35 Sunny 64 18 0 -18 7 7 SSE 20 31 29.13 987 10 16 0.00 0.00
12:44 pm 12:44 Sunny 63 17 0 -18 8 8 S 17 28 29.17 988 10 16 0.00 0.00
12:48 pm 12:48 Sunny 63 17 3 -16 9 9 NE 22 35 29.16 987 10 16 0.00 0.00
12:54 pm 12:54 Sunny 63 17 3 -16 9 9 N 13 20 29.16 987 10 16 0.00 0.00
12:58 pm 12:58 Sunny 64 17.6 5 -15.2 9 9 E 20 31 29.14 987 10 16 0.00 0.00
1:00 pm 13:00 Sunny 64 18 5 -15 9 9 E 13 20 29.17 988 10 16 0.00 0.00
1:01 pm 13:01 Sunny 64 18 5 -15 9 9 NNE 13 20 29.16 987 10 16 0.00 0.00
1:19 pm 13:19 Sunny 64 18 7 -14 10 10 S 13 20 29.16 987 10 16 0.00 0.00
1:25 pm 13:25 Sunny 63 17 7 -14 11 11 E 12 19 29.14 987 10 16 0.00 0.00
1:58 pm 13:58 Sunny 63 17.1 7 -13.7 11 11 ESE 13 20 29.17 988 10 16 0.00 0.00
2:40 pm 14:40 Mostly Cloudy 64 18 12 -11 13 13 SE 13 20 29.17 988 10 16 0.00 0.00
2:52 pm 14:52 Mostly Cloudy 63 17 9 -13 12 12 S 17 28 29.17 988 10 16 0.00 0.00
2:58 pm 14:58 Partly Cloudy 63 17.1 9 -13 12 12 SSE 23 37 29.16 987 10 16 0.00 0.00
3:58 pm 15:58 Mostly Sunny 65 18.2 8 -13.3 11 11 SE 10 17 29.15 987 10 16 0.00 0.00
4:41 pm 16:41 Sunny 63 17 7 -14 11 11 ESE 13 20 29.16 988 10 16 0.00 0.00
4:58 pm 16:58 Sunny 61 16.2 7 -13.9 11 11 E 8 13 29.17 988 10 16 0.00 0.00
5:58 pm 17:58 Sunny 57 13.8 11 -11.5 16 16 Calm 29.19 988 10 16 0.00 0.00
6:58 pm 18:58 Sunny 55 12.7 11 -11.7 17 17 WNW 6 9 29.20 989 10 16 0.00 0.00
7:58 pm 19:58 Clear 56 13.4 5 -14.9 13 13 NNW 7 11 29.19 989 10 16 0.00 0.00
8:58 pm 20:58 Clear 55 12.5 2 -16.6 12 12 NNW 13 20 29.22 990 10 16 0.00 0.00
9:58 pm 21:58 Clear 53 11.6 4 -15.3 14 14 NNW 5 7 29.21 989 10 16 0.00 0.00
10:11 pm 22:11 Clear 54 12 9 -13 16 16 E 12 19 29.21 989 10 16 0.00 0.00
11:58 pm 23:58 Clear 33 0.4 17 -8.6 51 51 NNW 22 35 29.31 993 10 16 0.00 0.00

Powered by AerisWeather